FENGYUN 1C DEB, 31314

Orbit data source: Space-Track

FENGYUN 1C DEB, 31314 is space debris in SSO originally from a launch on Mon, 10 May 1999 UTC launched from the Taiyaun Space Center, China (TSC). Fengyun 1C debris stems from the Chinese weather satellite Fengyun-1C, which was intentionally destroyed by a Chinese anti-satellite missile in 2007. This event dramatically increased the amount of space debris, with thousands of trackable fragments posing hazards to satellites and human spaceflight. The Fengyun 1C debris cloud has become a focal point in discussions about space sustainability and the need for international regulations to prevent the creation of new debris.

Loading next visibility...
Identifier
31314, 1999-025BPS
Orbit
SSO
Country
Flag of CNCN / PRC
Related business
Manufacturer
Unknown
Mission
Spacecraft
Bus & Motor
Unknown
Mass
Unknown
Launch date (UTC)
1999-05-10 (27 years ago)
Launch vehicle
Unknown
Launch site
Taiyaun Space Center, China (TSC)
Object type
Payload
Rocket body
Debris
Shape & HBR
Unknown shape, 0.1 m
Radar Cross Section
Small (<0.1 m²)

Expand to show TLE details & history
Last TLE update: 1 day ago

TLE from 1 day ago
0 FENGYUN 1C DEB
1 31314U 99025BPS 25353.70557479  .00000576  00000-0  37468-3 0  9998
2 31314  98.8218 347.5232 0078455 337.7634  22.0138 14.04930177609128
Epoch: 2025-12-19T16:56Z
TLE epoch observation values (Epoch: 2025-12-19T16:56:01.661Z)
Latitude
-0.00006°
Longitude
4.9734°
Altitude
826.948 km
Speed
7.467 km/s
True Right ascension
23h 10m 05s
True Declination
0° 00' 00"
Sunlit
Object was in daylight at epoch
Visualization orbit readout
Latitude
Unknown
Longitude
Unknown
Altitude
Unknown
Speed
Unknown
Apparent Right ascension
Unknown
Apparent Declination
Unknown
Sunlit
N/A
Visualization observer readout
Local Sidereal Time
03:47:52
Azimuth
Unknown
Elevation
Unknown
Doppler factor
Unknown
Orbital elements
Apogee altitude
930.853 km
Perigee altitude
817.06 km
Semi-major axis
7,252.094 km
Eccentricity
0.00785
Inclination
98.8218°
RAAN
347.5232°
Arg. of periapsis
337.7634°
True anomaly
22.35387°
Mean anomaly
22.0138°
Eccentric anomaly
22.18353°
Mean motion
3.51437 °/min
Orbital period
102.44 mins
BSTAR
0.00037468
Loading maneuver chart data...
Computing Atmospheric mass density...

Documentation

Showing up to 5 results
|